Terminal Aerodrome Forecast
Issued by NWS

Home | Current Version | Previous Version | Text Only | Print | Product List | Glossary On
Versions: 1 2 3 4 5 6 7 8 9 10 11 12 13 14 15 16 17 18 19 20 21 22 23 24 25 26 27 28 29 30 31 32 33 34
000
FTUS43 KGLD 240001 AAA
TAFMCK
TAF AMD
KMCK 240001Z 2400/2424 15020G30KT P6SM VCTS SCT070CB
     FM240200 14015G23KT P6SM VCTS BKN200CB WS020/18045KT
     FM240600 12013KT P6SM VCSH BKN100
     FM240800 06013KT P6SM VCSH BKN060
     FM241200 03018G30KT 6SM -RA BKN010
     FM241800 01020G32KT 6SM -RA BKN008
     FM242200 36022G32KT P6SM -RA OVC010=

USA.gov is the U.S. government's official web portal to all federal, state and local government web resources and services.